This demonstration page uses our WeatherBlox Daily Observations layout. Learn more.

Left ArrowRight Arrow

Hourly Observations for October 12, 2020

Temp ( °F °C ) Dew Point ( °F °C ) Humidity (%) Winds ( mph kmh ) Pressure ( in mb ) Visibility ( mi km ) Precip ( " mm )
12:51 am 00:51 Cloudy with Light Rain 57 13.9 51 10.6 81 81 E 9 15 30.19 1023 10 16 0.01 0.25
1:51 am 01:51 Cloudy with Light Rain 56 13.3 49 9.4 77 77 E 7 11 30.20 1023 10 16 0.01 0.25
2:51 am 02:51 Cloudy with Light Rain 54 12.2 45 7.2 72 72 E 7 11 30.20 1023 10 16 0.01 0.25
3:51 am 03:51 Cloudy with Light Rain 52 11.1 46 7.8 80 80 NE 6 9 30.20 1023 10 16 0.03 0.76
4:51 am 04:51 Cloudy with Light Rain 50 10 47 8.3 89 89 NE 10 17 30.20 1023 7 11 0.06 1.52
5:51 am 05:51 Cloudy with Light Rain 49 9.4 46 7.8 90 90 NE 6 9 30.21 1023 10 16 0.05 1.27
6:51 am 06:51 Cloudy with Light Rain 49 9.4 46 7.8 90 90 NNE 5 7 30.22 1023 6 10 0.06 1.52
7:37 am 07:37 Cloudy with Light Rain 49 9.4 46 7.8 90 90 NE 5 7 30.22 1023 2 3 0.07 1.78
7:51 am 07:51 Cloudy with Light Rain 49 9.4 46 7.8 90 90 NE 5 7 30.22 1023 2 3 0.10 2.54
7:58 am 07:58 Cloudy with Light Rain 49 9.4 46 7.8 90 90 NE 7 11 30.22 1023 5 8 0.01 0.25
8:51 am 08:51 Cloudy with Light Rain 49 9.4 47 8.3 93 93 ENE 6 9 30.23 1024 4 6 0.07 1.78
9:51 am 09:51 Cloudy with Light Rain 50 10 47 8.3 89 89 NE 8 13 30.23 1024 5 8 0.04 1.02
10:51 am 10:51 Cloudy with Light Rain 50 10 47 8.3 89 89 NE 6 9 30.22 1023 8 13 0.05 1.27
11:11 am 11:11 Cloudy with Light Rain 50 10 47 8.3 89 89 ENE 8 13 30.22 1023 5 8 0.01 0.25
11:51 am 11:51 Cloudy with Light Rain 50 10 47 8.3 89 89 ENE 8 13 30.20 1023 3 5 0.05 1.27
11:58 am 11:58 Cloudy with Light Rain 50 10 47 8.3 89 89 NE 7 11 30.20 1023 5 8 0.00 0.00
12:16 pm 12:16 Cloudy with Light Rain 50 10 48 8.9 93 93 NE 8 13 30.20 1023 4 6 0.03 0.76
12:51 pm 12:51 Cloudy with Light Rain 51 10.6 48 8.9 89 89 ENE 7 11 30.19 1022 4 6 0.06 1.52
1:51 pm 13:51 Cloudy with Light Rain 51 10.6 49 9.4 92 92 NE 3 6 30.15 1021 2 3 0.05 1.27
2:51 pm 14:51 Cloudy with Light Rain 52 11.1 50 10 93 93 NE 5 7 30.14 1021 2 3 0.05 1.27
3:51 pm 15:51 Cloudy with Light Rain 52 11.1 50 10 93 93 NNE 6 9 30.12 1020 2 3 0.06 1.52
4:33 pm 16:33 Cloudy with Light Rain 52 11.1 50 10 93 93 E 9 15 30.11 1020 3 5 0.04 1.02
4:51 pm 16:51 Cloudy with Light Rain 53 11.7 50 10 89 89 ENE 8 13 30.10 1019 3 4 0.05 1.27
4:58 pm 16:58 Cloudy with Light Rain 53 11.7 50 10 89 89 ENE 9 15 30.10 1019 3 4 0.00 0.00
5:32 pm 17:32 Cloudy with Light Rain 53 11.7 50 10 89 89 NNE 9 15 30.09 1019 3 4 0.03 0.76
5:51 pm 17:51 Cloudy with Light Rain 52 11.1 50 10 93 93 NNE 9 15 30.09 1019 2 2 0.06 1.52
6:51 pm 18:51 Cloudy with Light Rain 52 11.1 50 10 93 93 NNE 6 9 30.08 1019 2 2 0.05 1.27
6:58 pm 18:58 Cloudy with Light Rain 52 11 50 10 94 94 NE 8 13 30.08 1019 2 3 0.00 0.00
7:51 pm 19:51 Cloudy with Light Rain 52 11.1 50 10 93 93 NNE 7 11 30.08 1019 2 3 0.05 1.27
8:51 pm 20:51 Cloudy with Light Rain 52 11.1 50 10 93 93 NE 8 13 30.07 1018 2 3 0.03 0.76
8:58 pm 20:58 Cloudy with Light Rain 52 11.1 50 10 93 93 NNE 7 11 30.07 1018 3 5 0.01 0.25
9:51 pm 21:51 Cloudy with Light Rain 52 11.1 50 10 93 93 NE 8 13 30.05 1018 3 5 0.03 0.76
9:58 pm 21:58 Cloudy with Light Rain 53 11.7 50 10 89 89 NE 9 15 30.05 1018 3 5 0.00 0.00
10:37 pm 22:37 Cloudy with Light Rain 53 11.7 51 10.6 93 93 NE 7 11 30.04 1017 3 5 0.01 0.25
10:51 pm 22:51 Cloudy with Light Rain 53 11.7 51 10.6 93 93 ENE 10 17 30.02 1017 3 5 0.02 0.51
11:00 pm 23:00 Cloudy with Light Rain 53 11.7 51 10.6 93 93 NE 8 13 30.03 1017 3 4 0.00 0.00
11:51 pm 23:51 Cloudy with Drizzle 53 11.7 51 10.6 93 93 NNE 7 11 30.01 1016 3 5 0.02 0.51

Powered by Vaisala Xweather